GFSNW_prec_cloud_003.txt.gz
Cloud_Cover
100 73 1 64 87 100 100 80 100 100 100 37 29 73 98 35 95 100 100 100 100 100 100 100 100 100 100 100 100 100 100 100 100 100 100 100 87 41 20 68 77 93 88 100
100 100 0 36 18 99 98 81 100 88 82 62 90 14 9 48 100 100 100 100 100 100 100 100 100 100 100 100 100 100 100 100 100 100 100 100 100 100 100 95 99 100 91 100
100 100 66 0 2 1 63 70 7 34 81 88 26 53 93 87 65 100 100 100 100 100 100 100 100 100 100 100 100 100 100 100 100 100 100 100 100 100 100 100 100 90 98 100
100 100 100 0 0 1 7 5 2 32 38 76 80 48 66 93 100 47 88 100 100 100 100 100 100 100 100 100 100 100 100 100 100 100 100 100 100 100 100 100 100 100 100 100
100 100 100 48 0 0 5 0 2 5 5 29 93 74 100 100 100 100 100 96 100 99 100 100 100 100 91 88 100 100 100 100 100 92 74 100 100 100 100 100 100 100 100 100
62 83 100 94 5 0 48 5 2 11 28 4 22 22 7 81 62 88 100 100 70 27 81 26 99 100 100 100 98 100 100 100 96 100 100 82 100 100 100 100 100 100 100 100
83 91 56 100 98 5 6 14 5 1 18 0 2 0 3 3 7 85 97 100 85 12 5 5 5 10 10 9 18 88 100 93 99 100 36 86 100 100 100 100 100 98 6 5
100 100 63 96 100 72 8 37 0 0 0 0 1 0 0 0 5 5 5 8 5 36 5 5 5 5 5 5 5 72 100 90 98 100 100 99 44 88 90 100 80 42 5 4
99 100 87 96 44 86 100 86 97 64 6 5 5 29 50 45 99 100 100 100 100 99 28 64 64 62 9 17 61 74 97 89 10 9 52 84 100 79 79 48 96 90 97 39
96 95 100 100 72 5 23 67 98 63 97 41 27 67 67 93 90 86 99 99 100 78 63 100 100 100 67 54 6 6 19 8 23 8 71 79 80 5 9 9 5 44 27 31
100 99 100 100 100 100 68 57 75 72 60 55 79 96 86 100 100 100 100 100 99 100 97 65 74 100 84 90 65 27 33 57 10 16 14 47 14 5 14 52 5 5 5 14
100 100 100 100 100 100 100 98 94 100 84 64 52 21 29 45 89 97 100 97 100 100 93 100 100 100 100 99 100 97 80 63 31 6 4 2 5 5 5 5 5 86 100 88
100 100 100 100 100 100 100 100 100 100 100 99 92 96 85 34 70 99 62 87 84 42 30 94 99 100 100 100 81 96 31 8 5 5 1 4 5 5 71 100 87 34 90 100
100 100 100 100 100 100 100 100 100 100 100 100 68 9 64 98 99 94 100 99 97 100 99 100 100 100 91 100 94 99 60 17 5 18 10 4 26 100 100 100 100 100 100 100
100 100 100 100 100 100 100 100 100 100 100 100 100 28 5 2 7 41 18 35 83 100 100 100 100 100 100 100 100 94 6 1 5 6 5 58 66 89 72 77 72 34 96 98
100 100 100 100 100 100 100 100 100 100 100 100 100 96 98 92 6 97 98 100 100 100 100 100 100 100 100 100 100 5 1 3 4 5 6 16 46 12 5 11 68 82 99 75
100 100 100 100 100 100 100 100 100 100 100 100 100 100 100 94 61 100 100 100 100 100 100 100 100 100 100 100 77 3 0 0 14 4 8 43 100 76 75 96 68 98 100 100
100 100 100 100 100 100 100 100 100 100 100 100 100 100 100 100 100 100 98 100 99 100 100 100 100 100 100 100 60 3 0 25 8 25 52 17 56 74 95 99 100 100 100 100
100 100 100 100 100 100 100 100 98 100 91 100 100 100 100 100 100 100 89 88 99 100 100 100 97 100 100 100 27 4 4 5 5 22 23 61 80 100 100 100 100 89 90 96
100 100 100 100 100 100 97 99 100 100 100 100 100 100 100 100 100 100 100 100 100 100 94 88 100 100 100 100 91 100 100 95 21 90 100 100 100 100 99 65 82 100 100 98
100 100 100 100 100 98 100 100 100 100 100 100 100 100 100 100 100 100 100 100 100 100 70 96 96 89 100 100 98 38 5 2 0 8 20 5 36 100 96 98 87 70 6 25
100 100 100 100 100 100 100 100 100 100 100 100 100 100 100 100 100 100 100 100 100 95 86 98 99 100 82 10 5 5 5 5 0 2 5 38 100 93 99 96 36 5 89 93
100 100 100 100 100 100 100 100 100 100 100 100 100 100 100 100 100 100 100 100 100 80 98 67 99 73 7 57 15 5 5 5 5 22 69 96 100 91 18 5 5 5 86 55
100 100 100 100 100 100 100 100 100 100 100 100 100 100 100 100 100 100 100 100 99 100 98 100 89 54 29 5 5 5 10 14 79 95 17 5 5 2 4 10 98 100 100 99
100 100 97 100 100 100 100 100 100 100 100 100 100 100 100 100 100 100 100 100 100 99 100 69 12 49 26 12 5 5 5 5 5 5 3 4 5 5 59 55 91 100 80 22
99 100 100 100 100 100 100 100 100 100 100 100 97 100 100 100 100 100 100 100 100 100 97 16 21 5 5 40 20 5 5 5 4 0 4 5 5 5 5 53 65 5 5 5
100 99 97 100 100 100 100 100 100 100 94 100 99 80 100 55 100 97 100 100 100 67 87 60 11 5 9 5 5 5 5 5 5 5 5 5 5 5 13 10 5 5 5 5

GFSNW_prec_cloud_006.txt.gz
Cloud_Cover
100 100 59 36 100 100 98 100 100 96 100 100 100 100 100 100 100 100 100 100 100 100 100 100 100 100 100 100 100 100 100 100 100 100 100 100 100 100 100 100 65 13 45 31
100 100 100 3 5 100 100 97 97 100 100 100 98 100 100 100 100 100 100 100 100 100 100 100 100 100 100 100 100 100 100 100 100 100 100 100 100 100 100 100 100 5 95 52
100 100 100 0 4 69 100 100 86 96 100 100 63 100 74 100 100 100 100 100 91 100 100 100 100 100 100 100 100 100 100 72 100 100 100 100 100 100 100 100 100 100 100 100
100 100 100 0 1 71 79 100 32 54 97 100 74 5 5 42 100 98 100 100 100 100 100 100 100 100 100 100 100 100 100 100 100 100 100 100 100 100 100 100 100 100 100 100
100 100 100 97 0 2 12 91 5 28 32 64 68 44 54 100 100 100 100 100 100 100 100 100 100 100 100 100 100 100 100 100 100 100 100 100 100 100 100 100 100 100 100 100
92 100 100 100 0 0 5 0 5 4 5 5 8 9 43 47 100 96 100 100 100 100 100 100 100 99 100 100 100 95 65 55 99 100 91 99 100 100 100 100 100 100 100 100
99 96 72 100 23 0 0 5 0 0 5 2 38 16 34 58 100 100 100 100 100 100 100 100 100 100 98 92 100 100 100 99 100 100 73 100 100 100 100 88 100 100 76 100
100 95 99 51 100 8 0 3 0 0 0 0 8 7 1 11 94 99 100 100 100 100 75 37 8 68 18 9 11 12 13 60 100 100 100 100 100 98 92 74 96 48 5 10
96 100 100 64 42 100 25 2 0 4 0 0 0 0 0 4 39 5 56 93 5 38 91 97 29 47 13 42 56 14 5 5 7 11 28 58 100 100 100 75 35 48 81 72
97 100 98 100 42 5 73 93 25 6 2 2 0 0 3 5 2 23 20 36 95 98 85 50 5 30 80 45 84 23 5 5 5 5 18 66 59 51 100 97 61 62 72 74
100 97 100 100 100 98 52 76 99 91 89 76 44 47 5 50 88 86 52 78 70 29 5 5 7 99 81 33 55 15 28 5 5 5 48 25 19 9 5 11 14 37 34 48
100 100 77 95 100 100 100 100 37 49 12 17 37 34 87 44 97 100 100 100 59 93 81 99 100 68 53 66 99 53 39 4 5 4 3 0 0 5 7 16 16 89 96 100
100 100 100 66 93 100 100 100 100 100 100 60 49 47 69 48 96 90 73 80 100 100 100 100 83 18 18 95 95 46 6 4 5 3 5 3 5 4 5 5 6 25 95 96
92 97 100 100 100 100 100 100 100 100 100 95 68 53 25 5 48 99 100 100 100 100 97 96 100 100 87 100 93 6 10 5 4 5 5 3 5 28 7 8 5 6 11 40
100 100 98 100 100 100 100 100 100 100 94 99 100 66 39 81 100 100 100 100 100 100 100 99 97 100 100 100 98 13 2 2 4 6 1 2 2 3 5 5 5 5 5 5
100 100 100 99 100 100 100 100 100 100 100 100 100 75 24 31 32 32 54 64 100 100 100 100 100 100 100 100 100 5 5 5 5 0 0 0 0 4 5 5 5 5 5 13
100 100 100 100 99 100 100 100 100 100 100 100 99 100 100 66 94 100 100 100 100 100 100 100 100 100 100 100 93 29 4 0 0 0 0 0 0 1 5 1 45 100 100 94
100 100 100 100 100 100 100 100 100 100 100 100 100 100 100 76 100 100 100 100 100 100 100 100 100 100 100 100 54 62 5 5 5 4 1 1 4 21 92 100 99 63 70 91
100 100 100 100 100 100 100 80 100 100 100 100 100 100 100 80 100 100 100 100 100 100 100 100 97 100 100 100 100 97 85 15 5 27 51 49 65 99 100 47 48 96 88 51
100 100 100 100 100 100 82 33 79 100 100 100 100 100 100 85 88 71 84 100 100 100 100 100 100 100 100 100 100 90 49 5 5 80 97 100 100 100 100 100 95 56 6 24
100 100 100 100 100 100 100 100 100 100 100 100 100 100 100 100 100 91 64 100 100 100 100 100 89 100 100 100 100 95 74 59 87 100 100 99 60 68 76 79 31 70 79 87
100 100 100 100 100 100 100 100 100 100 100 100 100 100 100 100 100 100 100 100 100 93 66 73 100 100 100 100 100 100 100 100 100 100 30 5 4 83 53 78 73 89 22 1
100 100 100 100 100 100 100 100 100 100 100 100 100 100 100 100 100 100 100 100 100 100 93 100 100 100 83 59 52 99 89 95 71 13 5 5 33 81 9 12 5 0 0 0
100 100 100 100 100 100 100 100 100 100 100 100 100 100 100 100 100 100 100 100 100 100 100 100 100 44 98 90 68 60 47 32 5 5 5 5 5 5 5 5 0 0 4 5
100 97 100 100 100 100 100 100 100 100 80 100 100 100 97 100 100 100 100 97 100 100 100 92 5 19 44 30 7 5 5 5 5 5 5 5 5 4 4 0 0 2 5 5
100 99 100 98 100 100 100 100 100 100 100 100 98 99 100 100 100 100 100 100 100 100 75 12 5 5 5 5 5 39 5 5 5 5 5 5 5 5 2 5 5 5 5 5
100 100 99 58 89 100 100 100 100 100 100 100 100 100 100 100 100 100 100 100 100 77 5 5 9 29 5 5 12 90 19 5 5 5 5 5 5 5 5 18 61 5 5 5

GFSNW_prec_cloud_012.txt.gz
Cloud_Cover
100 100 100 100 50 80 100 100 100 100 100 100 100 100 100 100 100 100 100 100 100 94 69 81 84 70 95 100 97 92 18 5 10 53 14 5 4 68 34 99 98 100 100 100
100 100 100 100 6 7 100 80 100 100 100 100 93 100 100 100 100 100 100 100 100 100 100 100 68 94 79 100 100 75 48 97 36 4 13 6 98 100 100 100 100 100 100 100
96 100 100 100 59 2 13 100 99 76 79 100 100 100 100 100 100 100 100 100 100 100 100 100 100 100 100 100 100 100 100 95 99 100 100 100 100 98 100 100 100 100 100 98
100 100 100 100 94 1 4 100 100 47 46 100 100 100 98 100 100 100 100 100 100 100 100 100 100 100 100 100 100 100 100 100 100 51 38 12 73 98 100 100 100 100 100 100
100 100 100 100 100 0 0 48 100 100 71 80 100 95 100 100 100 100 100 100 100 100 100 100 100 100 100 100 100 100 100 100 100 100 100 100 100 77 52 100 100 100 100 100
100 100 100 100 99 0 5 2 25 72 50 92 52 77 98 100 100 100 75 100 99 100 100 100 100 100 100 100 100 100 100 100 100 100 100 100 100 100 100 100 100 100 100 100
100 100 100 100 100 8 1 5 5 5 64 100 68 100 100 100 100 94 100 100 100 94 100 100 100 100 100 100 100 100 100 100 100 100 100 96 100 100 100 99 100 100 100 100
100 100 100 100 100 37 0 5 5 3 23 98 94 100 100 100 100 99 90 90 100 94 93 100 100 100 100 100 100 100 100 100 100 100 100 100 100 100 100 100 100 100 100 100
100 62 100 100 100 100 0 0 0 5 5 86 57 95 100 52 98 100 98 84 95 100 100 100 100 100 100 100 100 100 100 100 100 100 100 100 100 100 100 100 100 46 42 20
100 74 100 96 100 100 21 0 0 5 0 3 92 65 84 67 23 85 100 95 67 100 88 100 94 97 100 100 93 100 100 100 100 100 99 100 100 98 60 29 5 5 5 5
100 98 87 89 100 100 99 30 0 0 2 0 4 3 5 5 21 15 100 100 98 71 9 57 41 26 97 76 63 58 25 80 80 82 18 6 5 7 5 5 5 5 5 6
100 100 99 100 96 100 100 98 9 0 1 0 0 0 5 8 73 83 64 58 100 100 95 51 82 78 58 77 85 44 96 89 15 6 5 6 18 89 85 5 5 14 32 14
100 100 100 88 98 100 100 99 93 97 8 5 4 2 0 0 4 4 9 7 35 86 86 81 71 5 5 5 19 5 31 48 69 53 34 26 40 72 87 90 51 6 5 5
100 100 100 89 84 99 100 100 100 12 52 86 72 6 6 25 6 3 3 17 46 96 100 100 99 73 25 5 16 14 30 99 100 100 26 5 5 69 48 55 67 60 21 5
78 100 100 96 94 100 100 100 100 100 70 91 78 89 98 100 96 83 87 100 100 100 100 100 100 100 97 62 82 100 59 88 72 65 39 5 5 5 5 5 5 5 5 5
99 100 100 100 100 100 100 100 97 100 100 100 92 70 76 95 94 100 100 100 100 100 100 100 100 100 90 100 97 5 39 8 5 5 5 5 4 5 2 0 0 0 0 0
100 100 100 100 100 100 72 63 81 92 100 100 100 94 95 98 96 100 100 100 100 100 100 100 100 100 93 63 80 3 5 5 5 5 1 2 0 0 0 1 43 97 81 80
100 100 100 100 100 99 93 99 100 100 100 98 93 100 91 100 100 100 100 100 100 100 100 100 100 100 100 100 6 5 5 5 5 5 5 2 4 10 27 80 100 100 98 44
100 100 100 100 100 100 100 100 100 100 100 100 100 100 100 100 100 100 100 100 100 100 100 100 80 82 100 17 34 5 56 20 5 6 66 63 31 89 100 100 100 100 11 5
100 100 100 100 100 100 100 98 100 100 99 97 100 100 100 100 100 100 100 100 100 100 100 100 100 100 100 95 71 9 12 6 5 5 3 70 31 36 57 98 100 89 17 5
100 100 100 100 100 100 98 82 100 87 99 99 100 100 100 96 100 100 98 100 100 89 87 100 95 100 100 100 94 87 52 6 5 5 24 15 5 6 37 34 42 5 5 5
100 100 100 100 100 100 95 100 89 100 58 99 100 100 100 100 100 100 100 96 94 99 90 100 100 100 100 86 26 5 5 20 93 100 99 58 62 49 8 5 5 5 5 5
100 100 100 100 100 100 100 100 100 100 100 100 100 100 100 100 100 100 100 98 83 81 96 94 100 100 91 22 5 18 89 95 81 58 18 5 5 5 5 5 5 5 5 5
100 100 100 100 99 92 100 100 100 100 100 100 100 100 100 100 100 100 100 99 97 100 100 99 100 54 10 5 5 5 33 58 77 67 45 5 5 5 5 5 5 5 5 5
100 100 100 100 100 100 100 100 100 100 100 100 100 100 100 100 100 100 100 100 100 100 100 80 5 5 5 5 23 28 34 19 6 5 5 5 5 5 5 5 5 5 5 9
100 100 100 100 100 100 100 100 100 100 100 100 100 100 100 100 100 100 100 100 100 100 63 5 16 26 94 100 100 100 99 56 8 8 11 13 6 5 10 5 5 5 5 5
100 100 100 100 100 100 100 100 100 100 100 100 100 100 100 100 100 100 100 100 100 98 86 78 72 100 100 100 100 100 100 96 75 77 66 46 18 7 42 27 5 33 5 5

GFSNW_prec_cloud_018.txt.gz
Cloud_Cover
100 100 100 100 100 100 87 18 53 100 100 100 100 100 100 100 100 100 100 100 100 6 100 75 14 100 9 10 96 52 42 3 99 100 38 100 79 5 5 5 0 0 0 0
100 100 100 100 100 100 98 22 32 100 100 100 100 100 100 100 100 100 100 99 98 5 5 52 99 74 77 99 100 87 37 16 48 95 96 74 24 5 5 5 5 0 0 0
100 100 100 100 100 100 98 5 20 100 100 100 100 100 100 100 100 100 99 92 78 7 30 96 94 100 100 100 98 100 84 87 5 3 5 12 4 2 4 26 0 0 0 0
100 100 100 100 100 100 100 20 1 69 99 100 100 100 100 100 100 100 100 94 90 92 22 76 100 100 98 98 100 100 97 100 97 5 12 97 53 61 28 6 2 0 0 0
100 100 100 100 100 100 98 89 4 73 100 100 100 100 100 100 100 100 100 78 90 64 30 46 91 99 93 40 78 88 98 98 100 78 100 81 5 5 0 5 4 0 0 0
100 100 100 100 100 100 99 100 57 92 100 100 100 100 100 100 100 100 100 100 100 100 100 100 100 98 99 100 99 100 100 100 98 100 95 46 5 20 5 56 5 0 1 1
100 100 100 100 100 100 100 100 91 100 100 100 100 100 100 100 100 100 100 100 100 100 100 100 100 100 100 100 100 72 97 90 96 49 6 53 95 12 5 5 5 78 90 100
100 100 100 100 100 100 100 100 29 100 98 94 100 100 100 86 98 100 100 100 100 100 100 100 100 100 100 100 100 100 100 100 100 100 92 100 100 90 96 100 100 100 100 100
100 100 100 100 100 100 100 100 36 100 85 71 70 99 100 100 94 100 100 100 100 100 100 100 100 100 100 100 100 100 100 100 100 100 100 100 100 100 100 100 100 100 100 100
100 100 100 100 100 100 100 100 23 99 91 37 64 99 99 100 100 90 79 97 100 100 100 100 100 100 100 100 100 100 100 100 96 100 90 100 100 100 99 100 100 100 67 99
100 100 100 100 100 100 100 100 28 75 93 86 92 98 100 100 100 100 99 100 99 100 100 100 100 100 100 100 100 100 100 100 100 100 100 100 100 100 100 100 100 100 100 100
100 100 100 100 100 100 100 100 70 28 96 97 92 100 100 100 100 100 100 100 100 69 100 65 77 100 100 100 100 100 100 100 100 100 100 100 97 78 66 95 100 100 100 100
100 100 100 100 100 100 100 100 98 5 89 32 61 100 100 100 93 100 100 100 100 96 99 82 100 100 96 100 100 100 100 100 100 68 100 100 100 100 100 100 100 100 100 100
100 100 100 100 100 100 100 100 100 94 16 62 87 54 70 99 100 100 60 71 35 8 5 26 17 7 61 100 100 100 96 100 100 100 100 100 100 100 100 100 100 100 89 89
100 100 100 100 100 100 100 100 100 100 100 96 89 100 77 9 31 95 56 7 5 5 5 29 96 100 80 70 10 6 16 98 100 100 100 100 100 100 100 100 100 92 79 46
100 100 100 100 100 100 100 100 100 100 100 100 99 100 100 100 98 60 74 56 8 5 5 5 76 82 43 18 49 5 5 12 7 48 100 49 81 100 100 68 81 96 23 6
100 100 100 100 100 100 62 100 100 100 100 100 100 88 100 100 100 100 100 100 99 75 77 50 58 65 33 34 25 5 6 50 53 7 5 5 5 58 85 100 100 100 98 80
100 100 100 100 100 100 71 79 100 100 100 100 100 100 93 100 100 100 100 100 100 100 100 100 92 74 100 99 76 54 44 58 48 61 52 15 34 99 96 90 100 100 83 96
100 100 100 100 100 100 97 100 88 90 97 100 100 100 100 100 100 100 100 100 100 100 100 100 100 100 100 100 100 95 100 100 100 100 100 100 100 100 100 100 100 96 60 100
100 100 100 100 100 100 100 78 21 69 99 100 100 100 100 99 100 100 100 100 100 100 100 100 100 100 100 100 100 100 100 100 100 100 100 100 100 99 74 29 5 5 19 100
100 100 100 100 100 100 97 100 33 91 97 86 100 100 100 100 100 100 95 99 87 95 100 98 92 100 97 40 98 100 100 100 95 76 37 58 88 77 6 5 5 5 60 89
100 100 100 100 100 100 94 49 95 100 100 100 100 100 100 100 100 100 93 97 36 80 94 100 96 100 100 94 97 100 100 82 14 72 93 76 19 5 5 5 5 5 5 5
100 100 100 100 100 100 99 100 100 100 100 100 100 98 99 94 98 91 74 91 75 54 94 100 100 100 92 56 42 6 5 23 89 91 23 5 5 5 5 5 5 5 5 5
100 100 100 100 100 100 100 100 100 100 100 100 100 100 100 100 83 99 99 80 76 99 88 99 94 62 71 65 49 74 94 100 68 42 8 5 5 6 5 5 5 5 5 6
100 100 100 100 77 100 100 100 100 100 100 100 100 100 100 93 92 92 77 100 100 99 100 94 99 100 100 100 100 100 89 82 86 89 97 76 59 51 16 5 5 5 5 5
100 100 93 100 100 100 100 100 100 100 100 100 100 100 100 100 96 92 82 92 80 87 100 100 100 100 100 100 100 100 100 100 92 100 100 100 100 93 38 5 5 5 5 6
100 100 100 100 100 100 100 100 100 100 100 100 100 100 100 100 100 100 96 65 64 28 62 100 100 100 100 100 100 100 100 100 100 100 100 91 20 5 5 5 5 7 5 5

GFSNW_prec_cloud_021.txt.gz
Cloud_Cover
100 100 100 100 100 100 100 100 100 100 100 100 100 100 100 100 100 100 100 100 98 1 0 98 89 99 36 100 99 84 80 18 52 78 100 100 100 62 77 7 3 2 0 0
100 100 100 100 100 100 100 100 100 100 100 100 100 100 100 100 100 100 100 100 66 0 5 83 95 86 20 88 46 16 73 48 52 98 30 97 99 42 24 14 20 5 5 0
100 100 100 100 100 100 100 100 100 100 100 100 100 100 100 100 100 100 100 100 98 5 90 95 30 6 95 99 100 100 99 5 3 5 5 5 5 8 22 10 21 1 0 2
100 100 100 100 100 100 100 100 100 84 95 100 100 100 100 100 100 100 100 100 70 4 90 70 72 98 100 100 100 100 57 55 54 37 5 69 74 61 66 33 5 5 7 2
100 100 100 100 100 100 100 80 100 97 14 100 100 100 100 100 100 100 99 99 42 5 9 99 98 18 66 100 65 93 22 41 100 100 100 22 6 5 5 5 5 5 1 0
100 100 100 100 100 100 100 95 100 97 75 100 100 100 100 100 100 100 100 100 36 7 38 100 100 100 97 100 98 100 80 88 83 80 100 60 5 28 27 5 5 5 0 0
100 100 100 100 100 100 100 87 100 93 85 94 100 100 100 100 100 100 100 100 100 100 98 85 92 98 100 100 84 99 99 84 99 97 86 38 93 11 6 5 5 5 75 14
100 100 100 100 100 100 100 97 100 91 98 100 100 99 100 100 100 100 100 100 100 100 94 84 100 100 100 100 89 91 100 100 98 73 58 80 100 100 84 16 32 5 81 98
100 100 100 100 100 100 100 100 100 100 99 94 100 100 98 100 100 100 100 100 100 100 100 100 100 100 98 100 100 100 100 100 100 100 32 100 100 96 8 74 99 100 55 76
100 100 100 100 100 100 100 100 100 100 100 100 97 63 100 100 100 100 100 100 100 100 100 100 100 100 100 100 100 100 100 100 100 96 98 94 100 96 79 100 100 93 96 84
100 100 100 100 100 100 100 100 100 100 100 100 99 92 100 100 100 100 100 100 100 100 100 100 100 100 100 100 100 97 87 84 84 97 86 94 96 88 46 65 100 100 100 100
100 100 100 100 100 100 100 100 100 100 100 100 100 96 51 100 100 100 94 98 100 100 100 100 97 99 100 100 100 99 100 100 100 100 100 100 100 100 100 100 100 100 100 100
100 100 100 100 100 100 100 100 100 100 84 100 100 100 68 98 100 100 100 100 99 65 41 77 96 100 69 99 93 100 99 100 100 100 100 100 100 100 100 100 100 100 100 100
100 100 100 100 100 100 100 100 100 100 90 51 100 100 99 100 100 100 100 100 100 100 88 60 70 36 93 91 100 100 100 92 100 100 100 92 100 100 100 100 100 100 96 81
100 100 100 100 100 100 100 100 100 100 100 84 100 100 100 100 100 100 100 100 100 100 92 100 97 100 97 58 15 17 5 8 8 14 5 6 13 46 31 6 10 59 100 100
100 100 100 100 100 100 100 100 100 100 100 100 100 99 100 100 100 100 99 100 100 100 100 100 81 100 39 8 5 5 5 6 5 5 79 9 5 5 5 6 64 66 100 100
100 100 100 100 100 100 100 100 98 100 100 100 100 99 99 100 100 98 99 93 74 86 100 84 48 13 78 100 93 8 5 5 5 5 9 4 5 5 10 94 98 94 76 10
100 100 100 100 100 100 100 100 100 100 100 100 100 98 100 100 100 100 100 100 100 100 69 74 100 100 93 100 73 5 5 13 40 7 5 5 42 62 86 56 95 99 100 81
100 100 100 100 100 100 100 100 100 100 100 100 100 100 100 100 100 100 100 100 100 100 100 100 100 66 91 56 7 5 6 13 6 67 96 100 100 100 100 100 100 100 100 96
100 100 100 100 100 100 100 100 100 100 100 100 100 100 100 100 100 100 100 100 100 100 100 100 100 100 100 100 96 89 100 100 100 100 100 100 100 100 100 100 100 93 21 17
100 100 100 100 100 100 100 94 92 97 99 100 100 100 100 100 100 100 100 100 99 97 94 100 100 100 100 100 100 100 100 100 100 100 100 100 100 66 59 80 17 5 5 26
100 100 100 100 100 100 96 73 99 99 100 100 100 100 100 100 100 100 100 93 100 96 100 100 100 100 98 55 100 100 100 100 100 100 100 100 95 92 70 5 5 5 5 26
100 100 100 100 100 94 79 100 98 100 100 100 100 100 100 89 62 72 72 56 37 28 96 100 100 100 100 100 100 100 100 100 100 95 29 6 5 5 5 5 5 5 5 5
100 100 100 100 96 69 52 100 100 100 100 100 100 100 100 87 83 89 91 62 86 94 100 100 100 100 100 100 100 100 100 100 79 59 59 45 42 44 43 41 8 5 5 5
100 100 100 100 82 100 100 100 100 100 100 100 100 100 98 100 95 100 71 99 100 100 100 100 100 100 100 100 100 100 100 100 87 76 99 100 86 70 66 38 10 10 5 20
100 100 100 100 91 100 100 100 100 100 100 100 100 100 100 100 84 100 100 100 100 100 100 81 61 72 96 100 100 100 100 100 100 100 93 88 86 93 100 94 85 73 70 44
100 98 60 99 100 100 100 100 100 100 100 100 100 100 100 100 100 100 100 100 100 100 100 100 100 100 100 100 100 100 100 89 70 69 84 100 100 100 100 92 52 28 77 73

GFSNW_prec_cloud_024.txt.gz
Cloud_Cover
100 100 100 100 100 100 100 100 100 100 100 100 100 100 100 100 100 100 100 100 100 36 25 6 73 79 38 28 94 100 38 74 93 100 100 98 100 96 42 99 46 5 4 0
100 100 100 100 100 100 100 93 100 100 100 100 100 100 100 100 100 100 100 100 100 8 5 62 60 7 55 100 46 95 64 70 99 77 100 98 100 90 86 94 33 5 5 4
100 100 100 100 100 100 100 100 100 100 100 100 100 100 100 100 100 100 100 100 93 5 3 6 10 53 28 89 77 94 99 89 78 22 5 57 100 100 100 98 41 5 2 2
100 100 100 100 100 100 100 100 100 100 100 100 100 100 100 100 100 100 100 100 98 3 1 87 21 25 5 37 100 89 50 84 86 17 5 5 15 16 82 5 20 4 30 5
100 100 100 100 100 100 100 100 100 98 71 56 100 100 100 100 100 100 100 100 90 34 5 40 100 100 100 100 100 100 100 100 100 100 6 1 2 5 50 3 43 17 5 0
100 100 100 100 100 100 100 100 100 100 82 13 100 100 100 100 100 100 94 81 36 62 83 99 22 85 95 99 100 100 100 100 100 90 74 5 1 0 5 5 0 0 0 45
100 100 100 100 100 100 100 100 100 100 90 12 100 100 100 100 100 100 82 56 6 62 100 100 51 53 66 82 66 100 99 100 41 60 97 90 27 3 5 1 0 1 0 5
100 100 100 100 100 100 100 100 100 100 100 8 100 100 100 100 100 100 100 100 82 6 93 100 100 100 100 100 100 100 98 90 96 86 95 92 98 23 5 1 12 5 4 4
100 100 100 100 100 100 100 100 100 100 100 46 98 100 100 100 100 100 100 100 100 100 99 100 100 100 100 100 100 100 100 100 89 89 98 97 64 5 5 3 16 6 66 40
100 100 100 100 100 100 100 100 100 100 100 99 93 100 86 100 100 100 100 100 100 100 95 100 100 100 100 95 100 100 100 100 100 100 88 98 98 50 60 86 100 56 62 89
100 100 100 100 100 100 100 100 100 100 100 100 100 92 97 100 100 100 100 100 100 100 100 100 100 100 100 100 98 77 100 100 100 100 100 100 86 82 51 64 67 80 95 86
100 100 100 100 100 100 100 100 100 100 100 100 100 88 53 100 100 100 100 100 100 100 100 100 100 100 100 100 97 76 67 71 97 40 88 78 58 80 60 23 95 10 58 100
100 100 100 100 100 100 100 100 100 100 100 100 100 100 100 100 100 100 100 100 100 100 100 100 100 100 100 100 100 99 99 100 100 100 100 100 100 100 100 100 100 100 100 100
100 100 100 100 100 100 100 100 100 87 100 100 100 100 100 100 100 100 100 92 99 100 100 100 100 100 100 99 100 100 100 100 100 100 100 100 100 100 100 100 100 100 100 100
100 100 100 100 100 100 100 100 100 100 99 100 100 100 100 100 100 100 100 100 100 98 99 100 69 86 100 100 100 100 100 100 100 100 100 100 100 100 100 100 100 100 100 100
100 100 100 100 100 100 100 100 100 100 100 100 100 57 100 100 100 100 100 100 100 100 100 100 85 79 100 100 100 100 100 79 68 49 37 5 6 7 6 5 5 5 6 13
100 100 100 100 100 100 100 100 100 100 100 100 100 100 100 100 100 100 99 100 100 100 100 100 100 100 99 99 100 96 93 56 6 5 2 5 4 1 5 5 5 3 38 97
100 100 100 100 100 100 100 100 84 100 100 100 100 100 100 100 100 100 100 100 100 100 99 100 100 62 48 99 100 100 26 5 5 5 5 5 5 4 5 5 5 65 81 90
100 100 100 100 100 100 100 100 100 100 100 100 100 100 100 100 100 100 100 90 97 72 79 100 88 74 91 100 92 92 1 4 38 30 5 5 8 93 100 92 90 99 100 100
100 100 100 100 100 100 100 100 100 100 100 100 100 100 100 100 100 100 100 100 100 100 100 96 100 97 12 15 92 5 6 33 53 61 100 100 100 100 100 100 100 100 100 100
100 100 100 100 100 100 100 99 49 74 100 100 100 100 100 100 100 100 100 100 100 100 86 100 75 100 10 3 5 54 60 86 94 100 100 100 100 100 100 89 91 99 100 100
100 100 100 100 100 100 79 21 78 94 100 100 100 100 100 100 100 100 100 86 46 46 72 95 100 12 3 2 11 57 99 100 98 98 100 92 92 94 100 100 100 100 100 100
100 100 100 100 100 96 66 98 99 100 100 100 100 100 100 86 63 75 54 47 69 99 100 100 98 66 24 31 98 100 100 100 100 100 82 80 86 100 100 100 100 100 94 41
100 100 100 100 100 28 44 100 100 100 100 100 100 100 88 52 6 10 7 60 100 100 100 100 100 100 100 100 100 100 100 100 100 100 100 100 100 100 100 100 99 99 100 100
100 100 100 100 82 96 100 100 100 100 100 100 100 81 92 98 77 36 67 90 79 100 100 100 100 96 100 100 100 100 100 100 100 100 100 100 90 96 100 100 100 100 100 100
100 100 100 100 98 100 100 100 100 100 100 100 100 100 83 96 65 100 99 89 100 100 100 87 27 36 92 95 100 100 100 100 100 100 98 100 100 100 98 97 86 69 41 44
100 100 100 99 66 99 100 100 100 100 100 99 100 100 100 98 99 100 100 100 100 100 99 84 94 99 100 100 100 100 100 100 100 78 90 88 79 78 79 94 73 56 42 50

GFSNW_prec_cloud_027.txt.gz
Cloud_Cover
100 100 100 100 100 100 100 100 100 100 100 100 100 100 100 100 100 100 100 100 100 100 97 89 100 61 93 100 100 100 100 100 100 100 100 100 100 100 100 94 28 1 9 74
100 100 100 100 100 100 100 100 100 100 100 100 100 100 100 100 100 100 100 100 100 100 100 92 83 65 10 66 100 100 100 100 100 100 100 85 100 39 32 98 34 46 5 52
100 100 100 100 100 100 100 100 100 100 100 100 100 100 100 100 100 100 100 100 100 100 100 76 14 95 36 52 100 97 100 96 94 100 100 100 100 100 100 97 23 10 11 85
100 100 100 100 100 100 100 100 100 100 100 100 100 100 100 100 100 100 100 100 100 100 54 84 67 40 7 9 5 95 86 84 45 84 100 18 60 86 92 6 99 9 28 5
100 100 100 100 100 100 100 100 100 100 100 100 99 100 100 100 100 100 100 100 100 88 5 67 99 50 6 16 44 71 100 57 95 60 5 52 5 68 54 94 24 5 5 5
100 100 100 100 100 100 100 100 100 100 100 100 100 100 100 100 100 100 100 100 76 92 4 84 91 68 91 58 77 96 100 98 100 97 58 5 4 0 7 80 76 98 57 99
100 100 100 100 100 100 100 100 100 100 100 99 49 100 100 100 100 100 100 100 100 49 90 95 100 100 98 88 87 87 79 65 100 100 93 38 0 0 4 2 3 24 24 62
100 100 100 100 100 100 100 100 100 100 100 100 42 100 100 100 100 100 100 93 99 100 100 100 100 100 70 76 100 98 98 98 100 100 85 36 74 53 4 0 0 2 3 1
100 100 100 100 100 100 100 100 100 100 100 100 45 100 100 100 100 100 100 100 95 100 100 100 100 100 100 100 100 93 99 100 95 96 98 83 86 12 4 0 15 5 4 4
100 100 100 100 100 100 100 100 100 100 100 100 72 100 100 100 100 100 100 100 100 100 100 100 100 100 100 100 100 100 100 98 92 100 100 99 90 75 7 42 32 3 5 16
100 100 100 98 100 100 100 100 100 100 100 100 88 100 99 100 100 100 100 100 99 100 100 100 100 100 100 98 92 98 100 100 100 100 100 100 59 100 92 84 5 5 65 99
100 100 100 100 100 100 100 100 100 100 100 100 100 100 97 100 100 100 100 100 100 100 100 93 100 87 87 57 96 71 100 63 85 96 84 97 99 99 99 59 64 76 25 7
100 100 100 100 100 100 100 100 100 100 100 100 100 99 94 100 100 100 100 100 100 100 100 100 100 100 100 100 99 96 19 94 42 95 100 100 92 65 81 24 75 99 50 88
100 100 100 100 100 100 100 100 100 100 100 100 100 100 100 86 100 100 100 100 100 100 100 100 100 100 100 100 100 100 100 100 100 100 97 100 92 97 100 100 100 100 100 100
100 100 100 100 100 100 100 100 100 100 100 100 100 100 100 55 97 100 97 100 100 100 100 100 100 100 100 100 100 100 100 100 100 100 91 100 100 100 100 100 100 100 100 100
100 100 100 100 100 100 100 100 100 100 100 100 100 100 100 100 57 100 100 100 100 100 100 100 100 100 100 100 100 100 100 100 100 100 100 100 100 100 100 100 100 100 100 100
100 100 100 100 100 100 100 100 100 100 100 100 100 100 100 100 100 100 100 100 100 100 100 100 100 100 100 100 100 100 100 100 100 100 70 27 5 10 11 5 5 5 5 5
100 100 100 100 100 100 100 100 100 100 100 100 100 100 100 100 100 100 100 100 98 100 100 80 98 48 97 100 100 100 100 78 67 91 90 57 53 23 5 5 5 37 52 5
100 100 100 100 100 100 100 100 100 100 100 100 100 100 100 100 100 100 100 100 100 100 99 100 75 60 100 100 100 98 68 60 37 5 5 5 12 27 5 5 5 5 42 100
100 100 100 100 100 100 100 100 100 94 100 100 100 89 100 100 100 100 100 100 100 100 100 100 100 100 100 100 100 100 70 9 22 63 100 100 100 100 85 53 47 99 100 100
100 100 100 100 100 100 100 100 72 89 95 100 100 100 100 100 100 100 100 100 100 100 100 96 100 100 100 85 93 100 97 50 5 13 60 61 36 48 57 94 100 100 100 100
100 100 100 100 100 100 99 93 81 100 100 100 100 100 100 100 100 100 100 100 90 100 97 100 100 100 96 9 5 30 90 100 98 91 84 79 9 65 95 100 100 100 93 55
100 100 100 100 100 99 84 99 98 100 100 100 100 100 100 99 100 100 100 97 73 23 100 100 100 100 77 48 46 53 100 100 100 80 100 87 61 67 100 100 100 100 100 100
100 100 100 100 100 92 99 100 100 100 100 100 100 100 100 78 53 10 58 99 100 100 100 100 93 16 6 34 37 97 92 88 99 100 99 79 100 100 100 100 100 100 100 100
100 100 100 100 100 100 100 100 100 100 100 100 100 98 49 94 42 26 87 100 98 100 100 100 100 100 98 94 100 100 100 100 100 100 100 100 100 100 100 100 100 100 100 100
100 100 100 100 100 100 100 100 100 100 100 100 95 73 80 96 63 95 84 85 100 100 100 100 100 72 78 97 100 100 100 100 100 100 100 100 100 100 100 100 100 100 100 100
100 100 89 100 100 100 100 100 100 100 100 100 99 75 74 73 99 63 94 100 100 94 88 100 100 100 100 100 100 100 100 100 100 100 100 100 100 100 100 100 100 100 100 100